Regional Weather Roundup
Issued by NWS

Home | Current Version | Previous Version | Graphics & Text | Print | Product List | Glossary On
Versions: 1 2 3 4 5 6 7 8 9 10 11 12 13 14 15 16 17 18 19 20 21 22 23 24 25 26 27 28 29 30 31 32 33 34 35 36 37 38 39 40 41 42 43 44 45 46 47 48 49 50
000
ASUS43 KIND 021859
RWRIN

WEATHER ROUNDUP FOR INDIANA
NATIONAL WEATHER SERVICE INDIANAPOLIS IN
200 PM EST FRI DEC 02 2016

NOTE: "FAIR" INDICATES FEW OR NO CLOUDS BELOW 12,000 FEET WITH NO
SIGNIFICANT WEATHER AND/OR OBSTRUCTIONS TO VISIBILITY.

* - STATION DOES NOT REPORT WEATHER SUCH AS PRECIPITATION OR FOG.

+ - STATION NOT QUALITY CONTROLLED BY THE NATIONAL WEATHER SERVICE.
    USE DATA WITH CAUTION...ESPECIALLY DEWPOINT AND RELATIVE
    HUMIDITY OBSERVATIONS.

INZ001>003-010>013-019-020-022000-
NORTHWEST INDIANA

CITY           SKY/WX    TMP DP  RH WIND       PRES   REMARKS
GARY /AIRPORT/ CLOUDY    41  32  70 W13       30.18S
MONTICELLO +   CLOUDY    38  31  75 NW9       30.19S
VALPARAISO     CLOUDY    39  31  72 W13       30.18R

$$

LMZ046-743>745-022000-
SOUTHERN LAKE MICHIGAN

STATION/POSITION TIME  TEMP    WIND        PRES    WAVE
                       AIR SEA DIR/SP/G            HT
                 (UTC) (F)     (DEG/KT/KT) (MB)    (FT)
BURNS HARBOR     1840   41     300/ 16/ 20 1021.7R
MICHIGAN CITY    1830   39     290/ 18/ 19   N/A

$$

INZ004-005-014>016-021>024-022000-
NORTH CENTRAL INDIANA

CITY           SKY/WX    TMP DP  RH WIND       PRES   REMARKS
ELKHART        PTSUNNY   37  30  75 NW14      30.15R
GOSHEN         LGT RAIN  37  33  85 W10       30.14R
PERU/GRISSOM   LGT RAIN  39  32  75 W13       30.16S
SOUTH BEND     CLOUDY    37  31  78 NW12      30.16R
WARSAW +       CLOUDY    37  30  75 W12G20    30.15R

$$

INZ006>009-017-018-025>027-022000-
NORTHEAST INDIANA

CITY           SKY/WX    TMP DP  RH WIND       PRES   REMARKS
ANGOLA *+      CLOUDY    39  34  81 W10       30.10S
FORT WAYNE     CLOUDY    39  32  76 W16       30.15R
KENDALLVILLE + CLOUDY    37  34  90 W12G18    30.13R

$$

INZ028-029-035-036-043>045-051>053-022000-
WEST CENTRAL INDIANA

CITY           SKY/WX    TMP DP  RH WIND       PRES   REMARKS
CRAWFORDSVL +  CLOUDY    38  32  80 W7        30.21R
GREENCASTLE +  CLOUDY    37  34  87 W3        30.22S
LAFAYETTE      CLOUDY    39  33  79 W12       30.20S
TERRE HAUTE    CLOUDY    41  31  67 W9        30.23S

$$

INZ030>032-037>040-046>048-054>057-064-065-022000-
CENTRAL INDIANA

CITY           SKY/WX    TMP DP  RH WIND       PRES   REMARKS
ANDERSON       CLOUDY    39  30  70 W12       30.19S
COLUMBUS       CLOUDY    39  32  75 W7        30.22S
GREENWOOD *+   CLOUDY    40  32  74 W8        30.21S
INDIANAPOLIS   CLOUDY    40  32  73 SW10      30.20S
-EAGLE CREEK   CLOUDY    40  31  70 W9        30.19F
KOKOMO +       CLOUDY    39  33  79 W10       30.19R
SHELBYVILLE    CLOUDY    40  31  70 W8        30.20S
ZIONSVILLE +   CLOUDY    38  31  76 W8        30.19S

$$

INZ033-034-041-042-049-050-058-059-022000-
EAST CENTRAL INDIANA

CITY           SKY/WX    TMP DP  RH WIND       PRES   REMARKS
MUNCIE         CLOUDY    40  30  67 W15       30.18R

$$

INZ060-061-067>069-081>083-085>088-022000-
SOUTHWEST INDIANA

CITY           SKY/WX    TMP DP  RH WIND       PRES   REMARKS
EVANSVILLE     SUNNY     47  30  51 N6        30.27S
HUNTINGBURG *+ MOSUNNY   43  29  57 N6        30.26R

$$

INZ062-063-066-070>080-084-089>092-022000-
SOUTH CENTRAL AND SOUTHEAST INDIANA

CITY           SKY/WX    TMP DP  RH WIND       PRES   REMARKS
BLOOMINGTON    CLOUDY    41  29  62 NW7       30.21F
MADISON *+     CLOUDY    41  30  65 W5        30.23F
SEYMOUR +      CLOUDY    43  30  61 W5        30.23S

$$





USA.gov is the U.S. government's official web portal to all federal, state and local government web resources and services.